Wyoming Mesonet
Water Resources Data System and State Climate Office


SEO WACNet, UW USACE UMRB, USDA-ARS, BLM

Boysen Reservoir (BYMW4)

Stake (Looking West)
Bare Soil Plot (Looking Southeast)

Air Temperatures (F)
Precipitation (inches)

Snow Depth (in)
Frost Depth

Wind Speed (mph)
Wind Direction (Degrees)

Humidity (%)
Solar Radiation (watts per square meter)

Soil Moisture
Soil Moisture

Soil Temperature
Soil Temperature

Sea-Level Pressure (in Hg)
Bare Soil Temperature with Soil and Air

Wind Soil
Temp Precip Speed Dir Gust Dir Humidity Pressure Solar Snow Temperature (Deg F) Moisture (%)
Date Time (MST) (F) (in) (mph) (deg) (mph) (deg) (%) (Mbars) (w/m^2) (in) 5cm 10cm 20cm 50cm 1m 5cm 10cm 20cm 50cm 1m
2026-08-30 00:00:00 60.85 0.00 5.65 125 11.55 100 68.0 854.0 0.0 0.3 68.18 75.20 77.72 77.54 73.40 3.2% 12.6% 10.7% 20.2% 25.1%
2026-08-30 01:00:00 61.23 0.00 5.62 124 10.68 93 70.4 854.0 0.0 0.3 67.10 74.48 77.72 77.54 73.40 3.2% 12.6% 10.8% 20.2% 25.1%
2026-08-30 02:00:00 59.27 0.00 8.94 161 12.42 131 73.1 854.0 0.0 0.4 66.74 73.76 77.18 77.36 73.40 3.2% 12.5% 10.7% 20.2% 25.2%
2026-08-30 03:00:00 59.56 0.00 5.82 26 10.31 184 67.6 854.0 0.0 0.3 66.38 73.40 77.00 77.36 73.40 3.2% 12.4% 10.7% 20.2% 25.2%
2026-08-30 04:00:00 59.16 0.00 7.12 97 8.57 87 69.3 854.0 0.0 0.3 65.66 72.68 76.64 77.36 73.40 3.2% 12.3% 10.8% 20.2% 25.1%
2026-08-30 05:00:00 57.04 0.00 7.75 95 9.32 98 72.0 854.0 0.0 0.3 64.94 72.32 76.46 77.36 73.40 3.2% 12.3% 10.8% 20.1% 25.1%
2026-08-30 06:00:00 57.33 0.00 6.78 120 11.05 95 72.9 854.0 44.8 0.3 63.68 71.96 76.28 77.18 73.40 3.2% 12.3% 10.7% 20.1% 25.1%
2026-08-30 07:00:00 61.14 0.00 6.72 59 10.44 129 64.3 854.0 79.3 0.4 64.40 71.24 75.74 77.18 73.40 3.2% 12.3% 10.7% 20.1% 25.1%
2026-08-30 08:00:00 65.10 0.00 8.42 133 9.81 134 55.5 855.0 431.8 0.4 66.38 70.88 75.38 77.18 73.40 3.3% 12.3% 10.5% 20.1% 25.3%
2026-08-30 09:00:00 67.51 0.00 9.22 250 11.93 138 49.9 855.0 442.6 0.4 70.52 71.42 75.02 77.18 73.40 3.3% 12.2% 10.5% 20.1% 25.0%
2026-08-30 10:00:00 68.31 0.00 4.81 306 12.17 276 50.7 855.0 344.5 0.4 74.48 72.14 74.84 77.18 73.40 3.3% 12.3% 10.6% 20.1% 25.2%
2026-08-30 11:00:00 73.53 0.00 19.55 271 27.20 284 35.0 855.0 876.0 0.4 80.06 73.22 74.66 77.00 73.40 3.3% 12.4% 10.6% 20.2% 25.1%
2026-08-30 12:00:00 73.69 0.00 17.08 252 29.57 291 34.5 855.0 442.0 0.4 84.74 74.48 74.48 76.82 73.40 3.4% 12.4% 10.5% 20.1% 25.0%
2026-08-30 13:00:00 77.56 0.00 20.96 221 28.21 234 27.5 854.0 830.0 0.4 86.90 76.10 74.66 76.82 73.40 3.4% 12.4% 10.5% 20.3% 25.2%
2026-08-30 14:00:00 78.17 0.00 19.69 188 27.96 185 23.2 854.0 893.0 0.4 90.86 77.36 74.84 76.64 73.40 3.6% 12.6% 10.5% 20.1% 24.9%
2026-08-30 15:00:00 76.62 0.00 11.53 191 27.96 203 23.3 853.0 648.5 0.3 93.74 78.98 75.02 76.64 73.40 3.6% 12.6% 10.5% 20.1% 25.2%
2026-08-30 16:00:00 80.49 0.00 15.60 233 20.24 251 18.9 853.0 486.8 0.2 93.38 80.24 75.38 76.64 73.40 3.6% 12.8% 10.6% 20.2% 25.1%
2026-08-30 17:00:00 79.68 0.00 11.15 275 21.74 223 17.9 853.0 303.4 0.2 91.04 80.96 75.92 76.64 73.40 3.5% 12.9% 10.6% 20.1% 25.2%
2026-08-30 18:00:00 77.79 0.00 13.56 290 17.89 282 18.6 853.0 136.7 0.1 87.62 81.50 76.28 76.46 73.40 3.4% 13.0% 10.7% 20.1% 25.3%
2026-08-30 19:00:00 74.34 0.00 10.24 284 20.38 295 20.6 854.0 0.0 0.1 82.76 81.14 76.82 76.46 73.40 3.3% 12.8% 10.7% 20.1% 25.1%
2026-08-30 20:00:00 70.45 0.00 9.74 272 15.16 291 26.1 854.0 0.0 0.1 78.26 80.42 77.18 76.28 73.40 3.3% 12.9% 10.8% 20.1% 25.1%
2026-08-30 21:00:00 68.14 0.00 7.74 301 13.91 275 25.8 855.0 0.0 0.1 75.02 79.52 77.72 76.28 73.40 3.2% 12.9% 10.8% 20.1% 25.1%
2026-08-30 22:00:00 61.77 0.00 5.51 86 9.07 290 31.4 855.0 0.0 0.0 71.96 78.44 77.72 76.28 73.40 3.2% 12.8% 10.7% 20.1% 25.0%
2026-08-30 23:00:00 61.29 0.00 6.03 294 9.57 2 38.6 855.0 0.0 0.1 69.08 77.36 77.90 76.28 73.40 3.2% 12.7% 10.7% 20.1% 24.9%
Contact Tony Bergantino for availability of additional data